| time (UTC) | temp F | wind direction | speed MPH | gust MPH | rain 1hr in | rain 24hr in | rain mn in | humidity % | barometer mb |
| 20260503015804 | 51 | 230 | 0.0 | 0.0 | 0.00 | 0.00 | 0.00 | 48 | 1015.2 |
| 20260503015305 | 52 | 230 | 0.0 | 0.0 | 0.00 | 0.00 | 0.00 | 48 | 1015.2 |
| 20260503014805 | 52 | 230 | 0.0 | 0.0 | 0.00 | 0.00 | 0.00 | 45 | 1015.2 |
| 20260503014305 | 53 | 230 | 0.0 | 0.0 | 0.00 | 0.00 | 0.00 | 44 | 1015.2 |
| 20260503013804 | 53 | 230 | 0.0 | 3.0 | 0.00 | 0.00 | 0.00 | 44 | 1015.1 |
| 20260503013305 | 54 | 230 | 0.0 | 3.0 | 0.00 | 0.00 | 0.00 | 42 | 1015.1 |
| 20260503012805 | 54 | 230 | 0.0 | 3.0 | 0.00 | 0.00 | 0.00 | 41 | 1015.2 |
| 20260503012306 | 55 | 230 | 1.0 | 3.0 | 0.00 | 0.00 | 0.00 | 41 | 1015.2 |
| 20260503011804 | 55 | 230 | 0.0 | 3.0 | 0.00 | 0.00 | 0.00 | 40 | 1015.1 |
| 20260503011305 | 56 | 230 | 2.0 | 3.0 | 0.00 | 0.00 | 0.00 | 38 | 1015.2 |
| 20260503010305 | 57 | 230 | 2.0 | 7.0 | 0.00 | 0.00 | 0.00 | 37 | 1015.2 |
| 20260503005805 | 57 | 230 | 0.0 | 8.0 | 0.00 | 0.00 | 0.00 | 36 | 1015.2 |
| 20260503005305 | 57 | 232 | 1.0 | 8.0 | 0.00 | 0.00 | 0.00 | 36 | 1015.3 |
| 20260503004805 | 58 | 270 | 2.0 | 7.0 | 0.00 | 0.00 | 0.00 | 35 | 1015.3 |
| 20260503003805 | 58 | 236 | 6.0 | 8.0 | 0.00 | 0.00 | 0.00 | 33 | 1015.3 |
| 20260503003305 | 58 | 205 | 3.0 | 7.0 | 0.00 | 0.00 | 0.00 | 33 | 1015.3 |
| 20260503002805 | 58 | 205 | 3.0 | 7.0 | 0.00 | 0.00 | 0.00 | 33 | 1015.4 |
| 20260503002305 | 58 | 202 | 6.0 | 8.0 | 0.00 | 0.00 | 0.00 | 32 | 1015.4 |
| 20260503001304 | 59 | 286 | 9.0 | 12.0 | 0.00 | 0.00 | 0.00 | 31 | 1015.6 |
| 20260503000805 | 59 | 295 | 9.0 | 12.0 | 0.00 | 0.00 | 0.00 | 31 | 1015.6 |
| 20260503000305 | 59 | 280 | 6.0 | 12.0 | 0.00 | 0.00 | 0.00 | 32 | 1015.6 |
| 20260502235805 | 59 | 245 | 5.0 | 10.0 | 0.00 | 0.00 | 0.00 | 32 | 1015.5 |
| 20260502235305 | 60 | 240 | 6.0 | 14.0 | 0.00 | 0.00 | 0.00 | 32 | 1015.5 |
| 20260502234804 | 60 | 240 | 7.0 | 14.0 | 0.00 | 0.00 | 0.00 | 31 | 1015.5 |
| 20260502234305 | 60 | 246 | 5.0 | 12.0 | 0.00 | 0.00 | 0.00 | 32 | 1015.7 |
| 20260502233805 | 60 | 223 | 6.0 | 12.0 | 0.00 | 0.00 | 0.00 | 32 | 1015.7 |
| 20260502233305 | 60 | 279 | 8.0 | 12.0 | 0.00 | 0.00 | 0.00 | 31 | 1015.8 |
| 20260502232805 | 60 | 277 | 6.0 | 12.0 | 0.00 | 0.00 | 0.00 | 30 | 1015.8 |
| 20260502232305 | 60 | 277 | 6.0 | 15.0 | 0.00 | 0.00 | 0.00 | 31 | 1015.8 |
| 20260502231805 | 60 | 264 | 10.0 | 15.0 | 0.00 | 0.00 | 0.00 | 31 | 1015.9 |
| 20260502231305 | 60 | 246 | 9.0 | 14.0 | 0.00 | 0.00 | 0.00 | 31 | 1015.9 |
| 20260502230805 | 60 | 238 | 9.0 | 14.0 | 0.00 | 0.00 | 0.00 | 31 | 1016.0 |
| 20260502225805 | 60 | 264 | 10.0 | 14.0 | 0.00 | 0.00 | 0.00 | 30 | 1016.0 |
| 20260502224805 | 61 | 279 | 5.0 | 17.0 | 0.00 | 0.00 | 0.00 | 31 | 1016.1 |
| 20260502224305 | 61 | 258 | 12.0 | 17.0 | 0.00 | 0.00 | 0.00 | 30 | 1016.0 |
| 20260502223804 | 61 | 295 | 3.0 | 10.0 | 0.00 | 0.00 | 0.00 | 33 | 1016.0 |
| 20260502223305 | 61 | 342 | 9.0 | 14.0 | 0.00 | 0.00 | 0.00 | 31 | 1015.9 |
| 20260502222805 | 61 | 236 | 8.0 | 14.0 | 0.00 | 0.00 | 0.00 | 31 | 1016.0 |
| 20260502222305 | 61 | 284 | 9.0 | 14.0 | 0.00 | 0.00 | 0.00 | 31 | 1015.9 |
| 20260502221805 | 61 | 107 | 7.0 | 15.0 | 0.00 | 0.00 | 0.00 | 32 | 1015.9 |
| 20260502221305 | 61 | 241 | 10.0 | 17.0 | 0.00 | 0.00 | 0.00 | 31 | 1015.9 |
| 20260502220804 | 61 | 235 | 5.0 | 17.0 | 0.00 | 0.00 | 0.00 | 33 | 1015.9 |
| 20260502220305 | 61 | 252 | 14.0 | 17.0 | 0.00 | 0.00 | 0.00 | 29 | 1016.0 |
| 20260502215805 | 61 | 258 | 6.0 | 21.0 | 0.00 | 0.00 | 0.00 | 31 | 1016.1 |
| 20260502215305 | 61 | 272 | 7.0 | 21.0 | 0.00 | 0.00 | 0.00 | 31 | 1016.1 |
| 20260502214805 | 61 | 232 | 10.0 | 18.0 | 0.00 | 0.00 | 0.00 | 31 | 1016.2 |
| 20260502214305 | 61 | 280 | 12.0 | 18.0 | 0.00 | 0.00 | 0.00 | 30 | 1016.1 |
| 20260502213804 | 61 | 256 | 7.0 | 12.0 | 0.00 | 0.00 | 0.00 | 31 | 1016.0 |
| 20260502212804 | 61 | 226 | 3.0 | 14.0 | 0.00 | 0.00 | 0.00 | 31 | 1016.3 |
| 20260502212305 | 61 | 260 | 9.0 | 14.0 | 0.00 | 0.00 | 0.00 | 30 | 1016.3 |
| 20260502211805 | 61 | 271 | 6.0 | 21.0 | 0.00 | 0.00 | 0.00 | 29 | 1016.4 |
| 20260502211304 | 61 | 220 | 9.0 | 21.0 | 0.00 | 0.00 | 0.00 | 30 | 1016.5 |
| 20260502210804 | 61 | 228 | 13.0 | 21.0 | 0.00 | 0.00 | 0.00 | 30 | 1016.6 |
| 20260502210304 | 61 | 287 | 6.0 | 15.0 | 0.00 | 0.00 | 0.00 | 32 | 1016.5 |
| 20260502205305 | 60 | 223 | 9.0 | 24.0 | 0.00 | 0.00 | 0.00 | 31 | 1016.7 |
| 20260502204804 | 61 | 257 | 18.0 | 24.0 | 0.00 | 0.00 | 0.00 | 31 | 1016.7 |
| 20260502204305 | 60 | 254 | 3.0 | 17.0 | 0.00 | 0.00 | 0.00 | 34 | 1016.8 |
| 20260502203805 | 60 | 244 | 9.0 | 18.0 | 0.00 | 0.00 | 0.00 | 31 | 1016.9 |
| 20260502203304 | 60 | 263 | 13.0 | 18.0 | 0.00 | 0.01 | 0.00 | 31 | 1017.0 |
| 20260502202804 | 60 | 260 | 12.0 | 14.0 | 0.00 | 0.01 | 0.00 | 31 | 1017.1 |
| 20260502202305 | 60 | 233 | 11.0 | 15.0 | 0.00 | 0.01 | 0.00 | 34 | 1017.2 |
| 20260502201805 | 59 | 255 | 9.0 | 15.0 | 0.00 | 0.01 | 0.00 | 33 | 1017.1 |
| 20260502201304 | 59 | 144 | 7.0 | 12.0 | 0.00 | 0.01 | 0.00 | 34 | 1017.1 |
| 20260502200805 | 59 | 304 | 3.0 | 15.0 | 0.00 | 0.01 | 0.00 | 32 | 1017.3 |
| 20260502200304 | 60 | 218 | 9.0 | 17.0 | 0.00 | 0.01 | 0.00 | 30 | 1017.4 |
| 20260502195804 | 60 | 243 | 13.0 | 17.0 | 0.00 | 0.01 | 0.00 | 32 | 1017.4 |
| 20260502194805 | 59 | 158 | 8.0 | 14.0 | 0.00 | 0.01 | 0.00 | 34 | 1017.5 |
| 20260502193804 | 59 | 267 | 6.0 | 15.0 | 0.00 | 0.01 | 0.00 | 37 | 1017.7 |
| 20260502193304 | 59 | 221 | 14.0 | 15.0 | 0.00 | 0.01 | 0.00 | 32 | 1017.8 |
| 20260502192305 | 58 | 334 | 8.0 | 14.0 | 0.00 | 0.01 | 0.00 | 35 | 1017.8 |
| 20260502191805 | 59 | 211 | 9.0 | 18.0 | 0.00 | 0.01 | 0.00 | 30 | 1017.9 |
| 20260502191305 | 59 | 263 | 6.0 | 18.0 | 0.00 | 0.01 | 0.00 | 34 | 1017.9 |
| 20260502190805 | 59 | 268 | 9.0 | 15.0 | 0.00 | 0.01 | 0.00 | 34 | 1017.9 |
| 20260502190304 | 59 | 252 | 8.0 | 10.0 | 0.00 | 0.01 | 0.00 | 34 | 1017.9 |
| 20260502185805 | 59 | 193 | 3.0 | 10.0 | 0.00 | 0.01 | 0.00 | 35 | 1018.0 |
| 20260502185306 | 59 | 178 | 6.0 | 10.0 | 0.00 | 0.01 | 0.00 | 33 | 1018.0 |
| 20260502184804 | 59 | 260 | 8.0 | 8.0 | 0.00 | 0.01 | 0.00 | 31 | 1018.2 |
| 20260502184304 | 59 | 345 | 5.0 | 8.0 | 0.00 | 0.01 | 0.00 | 38 | 1018.2 |
| 20260502183805 | 59 | 0 | 6.0 | 8.0 | 0.00 | 0.01 | 0.00 | 38 | 1018.3 |
| 20260502183304 | 58 | 347 | 6.0 | 8.0 | 0.00 | 0.01 | 0.00 | 35 | 1018.3 |
| 20260502182805 | 58 | 60 | 5.0 | 8.0 | 0.00 | 0.01 | 0.00 | 35 | 1018.4 |
| 20260502182305 | 58 | 355 | 6.0 | 8.0 | 0.00 | 0.01 | 0.00 | 36 | 1018.4 |
| 20260502181805 | 57 | 93 | 3.0 | 12.0 | 0.00 | 0.01 | 0.00 | 38 | 1018.5 |
| 20260502181304 | 58 | 245 | 12.0 | 12.0 | 0.00 | 0.01 | 0.00 | 33 | 1018.6 |
| 20260502180305 | 57 | 278 | 6.0 | 14.0 | 0.00 | 0.01 | 0.00 | 36 | 1018.7 |
| 20260502170304 | 56 | 261 | 6.0 | 7.0 | 0.00 | 0.01 | 0.00 | 38 | 1019.2 |
| 20260502164305 | 54 | 307 | 3.0 | 5.0 | 0.00 | 0.01 | 0.00 | 44 | 1019.4 |
| 20260502163805 | 54 | 0 | 2.0 | 7.0 | 0.00 | 0.01 | 0.00 | 42 | 1019.5 |
| 20260502163305 | 54 | 225 | 3.0 | 7.0 | 0.00 | 0.01 | 0.00 | 37 | 1019.5 |
| 20260502162804 | 55 | 152 | 5.0 | 7.0 | 0.00 | 0.01 | 0.00 | 37 | 1019.5 |
| 20260502162305 | 56 | 286 | 3.0 | 12.0 | 0.00 | 0.01 | 0.00 | 36 | 1019.5 |
| 20260502161805 | 56 | 305 | 7.0 | 12.0 | 0.00 | 0.01 | 0.00 | 38 | 1019.5 |
| 20260502161304 | 55 | 17 | 9.0 | 12.0 | 0.00 | 0.01 | 0.00 | 42 | 1019.5 |
| 20260502160805 | 55 | 55 | 6.0 | 8.0 | 0.00 | 0.01 | 0.00 | 40 | 1019.5 |
| 20260502160304 | 56 | 29 | 5.0 | 7.0 | 0.00 | 0.01 | 0.00 | 46 | 1019.6 |
| 20260502151804 | 53 | 263 | 3.0 | 7.0 | 0.00 | 0.01 | 0.00 | 46 | 1019.7 |
| 20260502151304 | 53 | 306 | 6.0 | 7.0 | 0.00 | 0.01 | 0.00 | 46 | 1019.7 |
| 20260502130304 | 43 | 183 | 2.0 | 7.0 | 0.00 | 0.01 | 0.00 | 83 | 1019.6 |
| 20260502123804 | 41 | 159 | 4.0 | 5.0 | 0.00 | 0.01 | 0.00 | 94 | 1019.5 |
| 20260502123304 | 40 | 51 | 3.0 | 5.0 | 0.00 | 0.01 | 0.00 | 96 | 1019.5 |
| 20260502122804 | 40 | 51 | 3.0 | 5.0 | 0.00 | 0.01 | 0.00 | 100 | 1019.5 |
| 20260502122306 | 39 | 51 | 1.0 | 3.0 | 0.00 | 0.01 | 0.00 | 100 | 1019.4 |
| 20260502121805 | 39 | 51 | 0.0 | 1.0 | 0.00 | 0.01 | 0.00 | 100 | 1019.4 |
| 20260502121305 | 38 | 51 | 0.0 | 1.0 | 0.00 | 0.01 | 0.00 | 100 | 1019.3 |
| 20260502120805 | 37 | 51 | 0.0 | 0.0 | 0.00 | 0.01 | 0.00 | 100 | 1019.3 |
| 20260502115306 | 35 | 51 | 0.0 | 0.0 | 0.00 | 0.01 | 0.00 | 100 | 1019.3 |
| 20260502114804 | 34 | 51 | 0.0 | 0.0 | 0.00 | 0.01 | 0.00 | 100 | 1019.2 |
| 20260502114304 | 34 | 51 | 0.0 | 0.0 | 0.00 | 0.01 | 0.00 | 100 | 1019.1 |
| 20260502112804 | 33 | 51 | 0.0 | 0.0 | 0.00 | 0.01 | 0.00 | 98 | 1019.0 |
| 20260502112306 | 33 | 51 | 0.0 | 0.0 | 0.00 | 0.01 | 0.00 | 98 | 1019.0 |
| 20260502111804 | 33 | 51 | 0.0 | 0.0 | 0.00 | 0.01 | 0.00 | 98 | 1018.9 |
| 20260502111304 | 33 | 51 | 0.0 | 0.0 | 0.00 | 0.01 | 0.00 | 98 | 1018.9 |
| 20260502110805 | 33 | 51 | 0.0 | 0.0 | 0.00 | 0.01 | 0.00 | 97 | 1018.9 |
| 20260502105804 | 33 | 51 | 0.0 | 0.0 | 0.00 | 0.01 | 0.00 | 96 | 1018.9 |
| 20260502105306 | 33 | 51 | 0.0 | 0.0 | 0.00 | 0.01 | 0.00 | 96 | 1018.8 |
| 20260502104804 | 33 | 51 | 0.0 | 0.0 | 0.00 | 0.01 | 0.00 | 96 | 1018.8 |
| 20260502103805 | 33 | 51 | 0.0 | 0.0 | 0.00 | 0.01 | 0.00 | 94 | 1018.7 |
| 20260502103304 | 33 | 51 | 0.0 | 0.0 | 0.00 | 0.01 | 0.00 | 94 | 1018.7 |
| 20260502102804 | 33 | 51 | 0.0 | 0.0 | 0.00 | 0.01 | 0.00 | 92 | 1018.6 |
| 20260502102306 | 33 | 51 | 0.0 | 0.0 | 0.00 | 0.01 | 0.00 | 92 | 1018.6 |
| 20260502101804 | 33 | 51 | 0.0 | 0.0 | 0.00 | 0.01 | 0.00 | 92 | 1018.7 |
| 20260502101305 | 33 | 51 | 0.0 | 0.0 | 0.00 | 0.01 | 0.00 | 91 | 1018.6 |
| 20260502100805 | 34 | 51 | 0.0 | 0.0 | 0.00 | 0.01 | 0.00 | 90 | 1018.6 |
| 20260502100305 | 34 | 51 | 0.0 | 0.0 | 0.00 | 0.01 | 0.00 | 90 | 1018.7 |
| 20260502091305 | 36 | 51 | 0.0 | 0.0 | 0.00 | 0.01 | 0.00 | 82 | 1018.7 |
| 20260502090804 | 36 | 51 | 0.0 | 0.0 | 0.00 | 0.01 | 0.00 | 82 | 1018.6 |
| 20260502090304 | 37 | 51 | 0.0 | 0.0 | 0.00 | 0.01 | 0.00 | 82 | 1018.6 |
| 20260502071304 | 42 | 83 | 2.0 | 8.0 | 0.00 | 0.01 | 0.00 | 69 | 1018.6 |
| 20260502070804 | 42 | 75 | 5.0 | 8.0 | 0.00 | 0.01 | 0.00 | 68 | 1018.5 |
| 20260502070304 | 42 | 71 | 4.0 | 8.0 | 0.00 | 0.01 | 0.00 | 67 | 1018.6 |
| 20260502065803 | 42 | 52 | 5.0 | 8.0 | 0.00 | 0.01 | 0.00 | 66 | 1018.6 |
| 20260502064804 | 42 | 121 | 3.0 | 10.0 | 0.00 | 0.01 | 0.00 | 65 | 1018.6 |
| 20260502064304 | 42 | 11 | 3.0 | 10.0 | 0.00 | 0.01 | 0.00 | 64 | 1018.6 |
| 20260502063804 | 42 | 50 | 1.0 | 10.0 | 0.00 | 0.01 | 0.00 | 63 | 1018.6 |
| 20260502063303 | 42 | 2 | 2.0 | 8.0 | 0.00 | 0.01 | 0.00 | 62 | 1018.6 |
| 20260502062804 | 42 | 42 | 5.0 | 7.0 | 0.00 | 0.01 | 0.00 | 62 | 1018.6 |
| 20260502062306 | 42 | 43 | 5.0 | 7.0 | 0.00 | 0.01 | 0.00 | 62 | 1018.5 |
| 20260502061804 | 42 | 5 | 3.0 | 7.0 | 0.00 | 0.01 | 0.00 | 62 | 1018.6 |
| 20260502060803 | 42 | 358 | 2.0 | 5.0 | 0.00 | 0.01 | 0.00 | 63 | 1018.6 |
| 20260502060304 | 41 | 358 | 0.0 | 5.0 | 0.00 | 0.01 | 0.00 | 63 | 1018.5 |
| 20260502055306 | 41 | 358 | 1.0 | 3.0 | 0.00 | 0.01 | 0.00 | 65 | 1018.5 |
| 20260502054804 | 40 | 358 | 0.0 | 1.0 | 0.00 | 0.01 | 0.00 | 65 | 1018.5 |
| 20260502054304 | 40 | 358 | 0.0 | 0.0 | 0.00 | 0.01 | 0.00 | 65 | 1018.4 |
| 20260502053804 | 41 | 358 | 0.0 | 0.0 | 0.00 | 0.01 | 0.00 | 65 | 1018.4 |
| 20260502053305 | 41 | 358 | 0.0 | 0.0 | 0.00 | 0.01 | 0.00 | 64 | 1018.4 |
| 20260502052804 | 41 | 358 | 0.0 | 0.0 | 0.00 | 0.01 | 0.00 | 64 | 1018.3 |
| 20260502052306 | 41 | 358 | 0.0 | 0.0 | 0.00 | 0.01 | 0.00 | 64 | 1018.4 |
| 20260502050814 | 42 | 358 | 0.0 | 0.0 | 0.00 | 0.01 | 0.00 | 60 | 1018.4 |
| 20260502050304 | 43 | 358 | 0.0 | 0.0 | 0.00 | 0.01 | 0.00 | 60 | 1018.4 |
| 20260502045804 | 43 | 358 | 0.0 | 0.0 | 0.00 | 0.01 | 0.01 | 59 | 1018.3 |
| 20260502045306 | 44 | 358 | 0.0 | 0.0 | 0.00 | 0.01 | 0.01 | 58 | 1018.2 |
| 20260502044804 | 44 | 358 | 0.0 | 1.0 | 0.00 | 0.01 | 0.01 | 58 | 1018.2 |
| 20260502044304 | 44 | 358 | 0.0 | 1.0 | 0.00 | 0.01 | 0.01 | 57 | 1018.2 |
| 20260502043804 | 45 | 358 | 0.0 | 1.0 | 0.00 | 0.01 | 0.01 | 56 | 1018.2 |
| 20260502043304 | 45 | 358 | 0.0 | 3.0 | 0.00 | 0.01 | 0.01 | 56 | 1018.2 |
| 20260502042306 | 46 | 358 | 1.0 | 3.0 | 0.00 | 0.01 | 0.01 | 55 | 1018.1 |
| 20260502041805 | 46 | 358 | 1.0 | 3.0 | 0.00 | 0.01 | 0.01 | 55 | 1018.0 |
| 20260502041304 | 46 | 358 | 0.0 | 1.0 | 0.00 | 0.01 | 0.01 | 55 | 1018.1 |
| 20260502040303 | 47 | 358 | 0.0 | 1.0 | 0.00 | 0.01 | 0.01 | 54 | 1018.0 |
| 20260502035804 | 47 | 358 | 0.0 | 1.0 | 0.00 | 0.01 | 0.01 | 54 | 1018.1 |
| 20260502035306 | 47 | 358 | 0.0 | 3.0 | 0.00 | 0.01 | 0.01 | 54 | 1018.0 |
| 20260502034805 | 47 | 358 | 1.0 | 3.0 | 0.00 | 0.01 | 0.01 | 54 | 1017.9 |
| 20260502033804 | 47 | 358 | 0.0 | 3.0 | 0.00 | 0.01 | 0.01 | 53 | 1017.8 |
| 20260502033304 | 47 | 358 | 1.0 | 3.0 | 0.00 | 0.01 | 0.01 | 53 | 1017.9 |
| 20260502032306 | 47 | 358 | 0.0 | 1.0 | 0.00 | 0.01 | 0.01 | 54 | 1017.8 |
| 20260502031303 | 47 | 358 | 1.0 | 3.0 | 0.00 | 0.01 | 0.01 | 55 | 1017.7 |
| 20260502030303 | 48 | 358 | 0.0 | 0.0 | 0.00 | 0.01 | 0.01 | 53 | 1017.7 |
| 20260502025804 | 48 | 358 | 0.0 | 1.0 | 0.00 | 0.01 | 0.01 | 53 | 1017.6 |
| 20260502025306 | 48 | 358 | 1.0 | 3.0 | 0.00 | 0.01 | 0.01 | 52 | 1017.6 |
| 20260502024804 | 48 | 358 | 3.0 | 3.0 | 0.00 | 0.01 | 0.01 | 52 | 1017.5 |
| 20260502023304 | 48 | 10 | 3.0 | 3.0 | 0.00 | 0.01 | 0.01 | 55 | 1017.2 |
| 20260502022804 | 47 | 1 | 3.0 | 5.0 | 0.00 | 0.01 | 0.01 | 57 | 1017.3 |
| 20260502022306 | 47 | 1 | 4.0 | 5.0 | 0.00 | 0.01 | 0.01 | 59 | 1017.2 |
| 20260502021804 | 47 | 1 | 1.0 | 5.0 | 0.00 | 0.01 | 0.01 | 62 | 1017.1 |
| 20260502021304 | 47 | 303 | 0.0 | 0.0 | 0.00 | 0.01 | 0.01 | 62 | 1017.0 |